Location: *
(45.5667°S, 177.5167°W)
Time: 15:19:26
(UTC+00:00)

USA 306 - Pass Details

Date: 29 May 2022
Orbit: 545 x 556 km, 54.0° (Epoch: 20 June)

Event Time Altitude Azimuth Distance (km) Brightness Sun altitude
Rises 05:36:50 0° 237° (WSW) 2,751 7.0 -13.5°
Reaches altitude 10° 05:39:06 10° 239° (WSW) 1,849 6.1 -13.8°
Maximum altitude 05:43:17 74° 322° (NW) 581 3.0 -14.5°
Drops below altitude 10° 05:47:25 10° 47° (NE) 1,827 5.2 -15.2°
Enters shadow 05:47:34 - 48° (NE) 1,885 5.2 -15.3°
